| time (UTC) | temp F | wind direction | speed MPH | gust MPH | rain 1hr in | rain 24hr in | rain mn in | humidity % | barometer mb |
| 20260504220054 | 56 | 277 | 0.0 | 0.0 | 0.00 | 0.17 | 0.00 | 92 | 1009.7 |
| 20260504214553 | 56 | 277 | 0.0 | 0.0 | 0.00 | 0.17 | 0.17 | 92 | 1009.8 |
| 20260504213055 | 56 | 277 | 0.0 | 0.0 | 0.00 | 0.17 | 0.17 | 92 | 1009.9 |
| 20260504211634 | 56 | 277 | 0.0 | 0.0 | 0.00 | 0.17 | 0.17 | 92 | 1010.0 |
| 20260504210054 | 56 | 277 | 0.0 | 0.0 | 0.00 | 0.17 | 0.17 | 92 | 1010.1 |
| 20260504204553 | 56 | 277 | 0.0 | 0.0 | 0.00 | 0.17 | 0.17 | 92 | 1010.2 |
| 20260504203050 | 56 | 277 | 0.0 | 2.0 | 0.00 | 0.17 | 0.17 | 92 | 1010.2 |
| 20260504201555 | 56 | 277 | 0.0 | 2.0 | 0.00 | 0.17 | 0.17 | 92 | 1010.2 |
| 20260504200053 | 56 | 277 | 0.0 | 0.0 | 0.00 | 0.17 | 0.17 | 92 | 1010.3 |
| 20260504194554 | 56 | 277 | 0.0 | 2.0 | 0.00 | 0.17 | 0.17 | 92 | 1010.2 |
| 20260504193049 | 57 | 277 | 0.0 | 0.0 | 0.00 | 0.17 | 0.17 | 91 | 1010.2 |
| 20260504191606 | 57 | 277 | 0.0 | 1.0 | 0.00 | 0.17 | 0.17 | 91 | 1010.0 |
| 20260504190059 | 57 | 277 | 0.0 | 1.0 | 0.00 | 0.17 | 0.17 | 91 | 1010.0 |
| 20260504184551 | 57 | 277 | 0.0 | 0.0 | 0.00 | 0.17 | 0.17 | 91 | 1009.9 |
| 20260504183046 | 57 | 277 | 0.0 | 1.0 | 0.00 | 0.17 | 0.17 | 90 | 1010.0 |
| 20260504181548 | 58 | 277 | 0.0 | 1.0 | 0.00 | 0.17 | 0.17 | 90 | 1010.1 |
| 20260504180045 | 58 | 277 | 0.0 | 2.0 | 0.01 | 0.17 | 0.17 | 90 | 1010.1 |
| 20260504174545 | 58 | 277 | 0.0 | 1.0 | 0.01 | 0.17 | 0.17 | 90 | 1010.1 |
| 20260504173051 | 58 | 277 | 0.0 | 2.0 | 0.02 | 0.17 | 0.17 | 89 | 1010.3 |
| 20260504171543 | 59 | 277 | 0.0 | 1.0 | 0.02 | 0.17 | 0.17 | 89 | 1010.3 |
| 20260504081557 | 66 | 159 | 1.0 | 7.0 | 0.00 | 0.00 | 0.00 | 62 | 1010.8 |
| 20260504044517 | 52 | 214 | 2.0 | 5.0 | 0.00 | 0.00 | 0.00 | 86 | 1009.8 |
| 20260504043018 | 52 | 214 | 1.0 | 3.0 | 0.00 | 0.00 | 0.00 | 86 | 1009.8 |
| 20260504041524 | 51 | 214 | 1.0 | 3.0 | 0.00 | 0.00 | 0.00 | 87 | 1009.7 |
| 20260504040012 | 51 | 214 | 2.0 | 4.0 | 0.00 | 0.00 | 0.00 | 86 | 1009.8 |
| 20260504034517 | 51 | 214 | 2.0 | 3.0 | 0.00 | 0.00 | 0.00 | 87 | 1009.8 |
| 20260504033013 | 51 | 214 | 1.0 | 3.0 | 0.00 | 0.00 | 0.00 | 87 | 1009.9 |
| 20260504031510 | 51 | 214 | 1.0 | 3.0 | 0.00 | 0.00 | 0.00 | 87 | 1009.9 |
| 20260504030010 | 51 | 214 | 2.0 | 4.0 | 0.00 | 0.00 | 0.00 | 87 | 1010.0 |
| 20260504024510 | 51 | 214 | 2.0 | 3.0 | 0.00 | 0.00 | 0.00 | 87 | 1010.0 |
| 20260504023009 | 51 | 214 | 2.0 | 4.0 | 0.00 | 0.00 | 0.00 | 87 | 1009.8 |
| 20260504021506 | 51 | 214 | 2.0 | 4.0 | 0.00 | 0.00 | 0.00 | 87 | 1010.0 |
| 20260504020005 | 51 | 214 | 3.0 | 4.0 | 0.00 | 0.00 | 0.00 | 86 | 1010.0 |
| 20260504014504 | 51 | 215 | 2.0 | 4.0 | 0.00 | 0.00 | 0.00 | 85 | 1009.9 |
| 20260504013004 | 52 | 215 | 2.0 | 4.0 | 0.00 | 0.00 | 0.00 | 85 | 1010.1 |
| 20260504003053 | 53 | 215 | 2.0 | 3.0 | 0.00 | 0.00 | 0.00 | 81 | 1009.9 |
| 20260504001553 | 53 | 215 | 1.0 | 2.0 | 0.00 | 0.00 | 0.00 | 81 | 1010.0 |
| 20260504000050 | 54 | 215 | 1.0 | 2.0 | 0.00 | 0.00 | 0.00 | 80 | 1010.1 |
| 20260503234602 | 54 | 215 | 1.0 | 2.0 | 0.00 | 0.01 | 0.00 | 79 | 1010.1 |
| 20260503233048 | 54 | 215 | 1.0 | 4.0 | 0.00 | 0.01 | 0.00 | 80 | 1010.0 |
| 20260503231541 | 55 | 215 | 2.0 | 6.0 | 0.00 | 0.01 | 0.00 | 79 | 1010.0 |
| 20260503230041 | 55 | 224 | 3.0 | 5.0 | 0.00 | 0.01 | 0.00 | 77 | 1010.0 |
| 20260503224537 | 56 | 225 | 2.0 | 5.0 | 0.00 | 0.01 | 0.00 | 76 | 1009.9 |
| 20260503223035 | 56 | 225 | 2.0 | 6.0 | 0.00 | 0.01 | 0.00 | 76 | 1009.9 |
| 20260503221535 | 56 | 247 | 4.0 | 7.0 | 0.00 | 0.01 | 0.00 | 75 | 1010.0 |